SCP
0 0 0 0 0 0 0 0 0 0 0 0 0 0 0 0 0 0 0 0 0 0 0 0 0 0 0 0 0 0 0 0 0 0 0 0 0 0 0 0 0 0 0
0 0 0 0 0 0 0 0 0 0 0 0 0 0 0 0 0 0 0 0 0 0 0 0 0 0 0 0 0 0 0 0 0 0 0 0 0 0 -0 0 0 0 0
0 0 0 0 0 0 0 0 0 0 0 0 0 0 0 0 0 0 0 0 0 0 0 0 0 0 0 0 0 0 0 0 0 0 0 0 0 0 0 0 0 0 0
0 0 0 0 0 0 0 0 0 0 0 0 0 0 0 0 0 0 0 0 0 0 0 0 0 0 0 0 0 0 0 0 0 0 0 0 0 0 0 0 0 0 0
0 0 0 0 0 0 0 0 0 0 0 0 0 0 0 0 0 0 0 0 0 0 0 0 0 0 0 0 0 0 0 0 0 0 0 0 0 0 0 0 0 0 0
0 0 0 0 0 0 0 0 0 0 0 0 0 0 0 0 0 0 0 0 0 0 0 0 0 0 0 0 0 0 0 0 0 0 0 0 0 0 0 0 0 0 0
0 0 0 0 0 0 0 0 0 0 0 0 0 0 0 0 0 0 0 0 0 0 0 0 0 0 0 0 -0 -0 0 0 0 0 0 0 0 0 0 0 0 0 0
0 0 0 0 0 0 0 0 0 0 0 0 0 0 0 0 0 0 0 0 0 0 0 0 0 0 0 0 0 0 0 0 0 0 0 0 0 0 0 0 0 0 0
0 0 0 0 0 0 0 0 0 0 0 0 0 0 0 0 0 0 0 0 0 0 0 0 0 0 0 0 0 0 0 0 0 0 0 -0 -0 -0 -0 0 0 0 0
0 0 0 0 0 0 0 0 0 0 0 0 0 0 0 0 0 0 0 0 0 0 0 0 0 0 0 0 0 0 0 0 0 0 0 0 0 0 0 0 0 0 0
0 0 0 0 0 0 0 0 0 0 0 0 0 0 0 0 0 0 0 0 0 0 0 0 0 0 0 0 0 0 0 0 0 0 0 0 0 0 0 0 0 0 0
0 0 0 0 0 0 0 0 0 0 0 0 0 0 0 0 0 0 0 0 0 0 0 0 0 0 0 0 0 0 0 0 0 0 0 0 -0 -0 -0 -0 0 0 0
0 0 0 0 0 0 0 0 0 0 0 0 0 0 0 0 0 0 0 0 0 0 0 0 0 0 0 0 0 0 0 0 0 -0 0 -0 -0 0 0 0 0 0 0
0 0 0 0 0 0 0 0 0 0 0 0 0 0 0 0 0 0 0 0 0 0 0 0 0 0 0 0 0 0 0 0 0 0 0 0 0 0 0 0 0 0 0
0 0 0 0 0 0 0 0 0 0 0 0 0 0 0 0 0 0 0 0 0 0 0 0 0 0 0 0 0 0 0 0 -0 0 0 0 0 0 0 0 0 0 0
0 0 0 0 0 0 0 0 0 0 0 0 0 0 0 0 0 0 0 0 0 0 0 0 0 0 0 0 0 0 0 0 0 0 0 0 0 0 0 0 0 0 0
0 0 0 0 0 0 0 0 0 0 0 0 0 0 0 0 0 0 0 0 0 0 0 0 0 0 0 0 0 0 0 0 0 0 0 0 0 0 0 0 0 0 0
0 0 0 0 0 0 0 0 0 0 0 0 0 0 0 0 0 0 0 0 0 0 0 0 0 0 0 0 0 0 0 0 0 0 0 0 0 0 0 0 0 0 0
0 0 0 0 0 0 0 0 0 0 0 0 0 0 0 0 0 0 0 0 0 0 0 0 0 0 0 0 0 0 0 0 0 0 0 0 0 0 0 0 0 0 0
0 0 0 0 0 0 0 0 0 0 0 0 0 0 0 0 0 0 0 0 0 0 0 0 0 0 0 0 0 0 0 0 0 0 0 0 0 0 0 0 0 0 0
0 0 0 0 0 0 0 -0 0 0 0 0 0 0 0 0 0 0 0 0 0 0 0 0 0 0 0 0 0 0 0 0 0 0 0 0 0 0 0 0 0 0 0
0 0 0 0 0 0 0 0 0 0 0 0 0 0 0 0 0 0 0 0 0 0 0 0 0 0 0 0 0 0 0 0 0 0 0 0 0 0 0 0 0 0 0
0 0 0 0 0 0 0 0 0 0 0 0 0 0 0 0 0 0 0 0 0 0 0 0 0 0 0 0 0 0 0 0 0 0 0 0 0 0 0 0 0 0 0
0 0 0 0 0 0 -0 -0 0 0 0 0 0 0 0 0 0 0 0 0 0 0 0 0 0 0 0 0 0 0 0 0 0 0 0 0 0 0 0 0 0 0 0
0 0 0 0 0 0 0 0 0 0 0 0 0 0 0 0 0 0 0 0 0 0 0 0 0 0 0 0 0 0 0 0 0 0 0 0 0 0 0 0 0 0 0
0 0 0 0 0 0 0 0 0 0 0 0 -0 0 0 0 0 0 0 0 0 0 0 0 0 0 0 0 0 0 0 0 0 0 0 0 0 0 0 0 0 0 0
Wind_Speed_500mb
53 48 43 38 32 29 25 21 20 19 19 17 22 26 34 37 35 29 23 21 21 22 27 31 35 39 34 28 24 22 29 32 34 38 38 43 48 51 42 39 40 40 39
53 48 45 38 35 31 25 24 23 22 18 19 24 30 35 35 28 21 19 18 22 26 29 31 33 32 29 25 24 27 29 31 38 45 50 51 51 51 54 52 46 46 47
53 50 45 38 36 32 28 27 25 18 16 15 27 30 30 27 21 19 21 24 26 28 29 30 34 35 32 29 29 30 32 34 39 46 52 51 52 51 56 53 48 44 45
58 51 44 40 39 36 31 31 22 15 15 22 27 27 22 16 18 19 22 23 25 27 29 33 35 34 32 30 29 32 40 44 42 42 45 47 48 48 47 51 51 45 45
58 51 44 41 39 37 34 28 16 13 17 23 22 15 11 13 16 21 24 28 31 32 33 33 29 25 24 27 29 36 39 37 36 39 42 44 45 46 48 46 49 54 46
59 53 47 46 43 39 35 18 14 10 18 21 11 8 9 14 17 24 28 31 31 31 32 28 24 22 23 20 26 32 30 32 34 39 39 42 45 45 45 45 47 53 56
65 57 54 52 48 39 24 15 10 13 20 13 5 5 9 13 19 22 24 26 28 26 24 25 20 18 24 30 31 28 24 23 33 38 36 39 43 42 46 44 46 48 48
67 60 57 53 45 32 21 15 12 17 10 1 1 6 8 13 15 19 20 20 19 21 24 25 25 27 31 35 35 35 30 30 29 28 32 36 34 41 39 42 47 45 43
69 60 57 50 40 29 21 12 14 9 6 4 2 1 7 9 13 16 18 15 13 19 22 26 27 28 31 34 35 34 32 31 29 30 34 34 25 26 33 37 40 43 43
64 59 53 43 33 23 13 13 11 11 8 10 6 1 4 7 9 14 18 17 16 18 17 22 24 32 39 42 40 39 35 34 38 40 40 29 24 24 30 34 38 41 44
57 56 50 41 28 18 17 17 15 16 14 12 8 5 4 7 9 13 16 19 20 21 23 24 28 35 43 39 34 34 34 36 38 39 30 30 25 28 32 22 31 37 35
60 56 46 35 26 20 23 26 29 25 21 16 11 9 5 5 8 13 17 20 21 22 24 26 29 36 41 37 32 28 26 30 31 27 28 30 30 31 35 28 29 35 30
59 51 41 33 22 27 33 38 32 24 20 20 18 12 8 6 8 11 14 18 21 21 25 27 27 33 36 31 28 28 29 32 33 30 29 28 30 30 32 31 24 22 29
56 49 42 31 29 38 38 33 25 20 14 13 13 11 10 9 7 7 9 15 16 19 24 25 24 29 30 28 27 27 30 34 37 36 34 28 26 26 28 30 30 23 23
49 45 39 32 36 48 39 30 25 19 13 7 4 5 6 6 4 1 10 15 19 23 27 28 23 27 28 27 26 30 32 35 37 37 37 32 24 23 23 27 27 19 28
49 45 40 36 42 44 40 33 27 21 16 8 5 6 4 6 8 11 14 17 20 22 24 29 25 26 25 26 30 34 35 37 39 38 36 34 30 23 21 19 21 22 26
46 45 46 41 46 44 40 32 29 23 16 12 8 12 14 9 13 15 13 13 14 16 17 25 24 24 22 23 27 34 40 44 44 41 39 37 31 18 16 11 15 22 31
38 44 51 44 41 42 36 29 26 21 18 16 16 15 14 12 17 15 11 10 10 11 12 19 21 20 18 20 24 30 37 43 46 47 45 40 33 25 15 13 15 21 28
40 53 55 47 42 38 32 27 22 19 18 14 14 15 14 8 10 12 13 11 10 10 11 13 17 18 14 17 19 24 31 36 45 49 47 45 42 34 18 17 20 23 29
43 52 54 51 43 41 34 27 21 16 15 13 12 9 13 9 5 6 8 12 12 12 12 12 13 16 18 16 18 22 25 30 35 41 45 47 47 43 29 22 24 28 30
51 57 53 51 45 41 34 29 21 15 13 13 11 9 12 14 14 16 14 16 16 17 13 14 15 17 19 21 24 26 27 30 34 35 37 39 42 48 47 36 32 32 34
60 60 52 46 46 42 36 31 23 16 15 13 13 17 16 14 16 21 25 25 22 21 21 22 23 23 24 27 30 32 33 34 37 39 38 37 39 40 47 47 41 39 38
58 53 49 48 46 42 35 33 27 24 21 18 15 18 23 23 21 26 28 28 28 28 28 29 30 29 30 33 34 37 40 40 41 47 47 45 45 52 52 54 51 45 41
56 49 42 46 49 41 35 33 28 29 30 24 23 25 26 23 19 21 21 21 23 25 26 28 28 28 30 35 39 44 46 46 48 50 53 52 48 57 60 57 54 48 44
53 45 38 42 45 40 36 30 30 30 29 27 23 24 23 23 24 25 27 28 26 25 25 29 34 39 43 47 51 53 52 53 57 60 62 62 54 52 60 58 56 48 44
50 45 43 44 44 40 36 33 32 29 29 28 28 25 24 25 27 29 29 32 37 43 45 46 47 50 53 57 57 53 50 52 57 53 61 65 63 50 51 53 52 48 42
Wind_Direction_500mb
205 204 203 198 198 202 208 219 239 254 261 284 305 317 327 328 327 322 319 322 323 323 323 328 335 335 333 332 328 334 328 325 324 318 320 321 322 325 326 318 312 311 301
205 199 195 197 201 204 214 223 238 250 274 298 308 324 329 334 338 335 331 332 328 326 331 333 339 344 342 334 327 322 325 327 326 322 321 323 323 323 323 320 310 303 299
201 197 196 200 205 213 221 230 234 250 273 308 321 325 335 338 339 339 335 333 330 331 335 339 338 337 333 328 326 324 322 323 322 320 319 320 319 322 320 322 322 315 302
202 201 201 206 208 215 225 226 239 260 300 315 319 330 335 348 347 342 341 339 339 338 334 331 328 327 328 331 333 331 329 324 318 318 322 326 326 327 327 333 336 339 332
202 202 206 207 213 217 223 219 228 280 306 325 327 334 345 347 342 342 342 336 331 328 331 337 342 335 326 327 337 331 328 329 337 336 337 341 342 343 342 347 341 340 343
203 206 207 210 215 219 215 225 274 281 323 334 331 339 341 342 343 339 333 333 336 341 346 353 354 1 356 351 337 328 330 334 337 336 339 341 343 343 343 338 333 334 334
203 203 208 211 209 205 216 224 241 295 317 313 318 340 342 344 342 343 352 358 5 12 19 16 19 3 339 338 345 343 341 330 323 327 328 333 331 338 332 335 336 329 323
200 205 207 205 203 201 206 220 262 299 295 227 335 348 1 358 13 16 10 18 33 25 11 6 6 7 3 358 356 353 346 337 336 338 337 338 329 330 332 331 334 331 332
198 202 199 200 193 195 203 234 280 255 189 211 214 23 1 19 19 27 28 32 31 10 14 18 17 11 5 357 349 347 345 343 341 333 336 336 339 346 346 347 350 345 341
196 195 193 186 187 190 213 261 230 190 214 188 190 205 38 36 38 38 35 33 26 33 27 19 12 1 350 341 336 336 338 340 338 338 336 337 327 334 336 344 349 349 347
189 183 179 181 183 202 236 199 181 159 145 153 160 131 72 68 43 33 36 42 38 34 24 12 358 354 353 350 345 343 345 341 340 338 339 338 338 343 355 349 358 355 346
177 177 178 181 194 213 177 167 149 129 109 96 110 113 91 53 41 52 55 43 27 12 4 358 351 351 355 357 357 355 344 340 338 340 340 349 353 348 351 346 353 4 359
176 177 179 185 185 174 168 156 145 130 107 84 79 93 80 60 72 66 50 28 5 357 353 345 341 343 350 357 353 350 346 345 346 340 338 347 352 345 341 352 356 353 13
178 178 180 183 172 171 166 158 155 146 130 101 77 73 68 71 83 85 25 2 360 357 356 350 338 341 351 354 356 358 354 352 353 352 350 339 333 342 343 347 357 3 18
181 181 181 181 178 177 178 170 162 155 147 136 118 61 47 76 96 330 341 348 355 353 354 353 349 352 360 7 9 2 356 353 356 358 358 357 355 355 355 356 358 24 32
186 187 185 178 181 184 180 178 180 180 173 190 236 256 284 268 270 296 315 329 344 345 352 357 2 2 4 7 8 12 10 8 6 5 3 3 0 6 10 23 48 40 22
194 191 183 179 182 184 187 187 189 189 197 214 248 253 256 281 275 267 294 313 329 343 354 4 9 10 16 20 27 28 26 21 15 11 7 5 7 6 7 29 16 12 10
197 198 187 181 177 185 187 182 184 194 219 238 253 260 247 247 266 260 268 295 312 337 348 1 7 14 26 35 31 29 29 25 20 16 14 11 8 360 348 336 344 355 0
192 193 191 186 183 183 184 190 199 222 236 230 250 233 239 251 294 235 250 274 297 308 333 346 359 1 360 8 13 16 16 18 16 15 13 11 10 7 355 340 335 329 336
196 193 188 189 187 190 194 200 216 224 228 235 202 256 244 263 284 229 249 269 284 302 302 318 330 344 350 338 346 350 354 356 4 9 14 18 15 9 359 341 333 334 334
195 187 189 192 196 194 200 205 208 223 214 200 221 253 248 251 274 278 270 277 287 279 295 299 301 308 318 328 328 332 335 338 341 348 359 4 11 14 6 347 330 327 326
186 185 189 192 193 201 206 202 209 216 192 210 237 252 262 277 281 283 282 282 277 283 278 284 295 303 307 309 313 316 320 324 324 326 331 338 344 350 358 357 340 327 322
185 188 190 195 200 201 210 207 216 223 227 239 246 256 265 274 293 293 286 286 274 272 278 284 290 295 301 304 305 306 308 314 313 312 311 315 320 325 329 341 343 333 324
183 186 191 195 195 204 211 214 219 235 241 247 249 258 268 275 288 292 297 285 276 276 280 283 285 292 298 301 302 301 300 302 299 299 300 302 306 317 321 324 334 332 324
188 192 191 197 205 211 215 227 227 228 236 242 249 263 271 267 270 286 292 286 284 283 288 289 291 295 298 301 302 302 301 299 296 292 293 295 295 302 321 323 327 324 321
197 203 210 213 214 214 218 226 228 241 240 248 256 265 273 278 279 284 287 289 289 288 289 289 291 295 298 301 300 299 301 299 293 291 289 291 283 297 313 321 324 317 315
Wind_Speed_850mb
53 48 43 38 32 29 25 21 20 19 19 17 22 26 34 37 35 29 23 21 21 22 27 31 35 39 34 28 24 22 29 32 34 38 38 43 48 51 42 39 40 40 39
53 48 45 38 35 31 25 24 23 22 18 19 24 30 35 35 28 21 19 18 22 26 29 31 33 32 29 25 24 27 29 31 38 45 50 51 51 51 54 52 46 46 47
53 50 45 38 36 32 28 27 25 18 16 15 27 30 30 27 21 19 21 24 26 28 29 30 34 35 32 29 29 30 32 34 39 46 52 51 52 51 56 53 48 44 45
58 51 44 40 39 36 31 31 22 15 15 22 27 27 22 16 18 19 22 23 25 27 29 33 35 34 32 30 29 32 40 44 42 42 45 47 48 48 47 51 51 45 45
58 51 44 41 39 37 34 28 16 13 17 23 22 15 11 13 16 21 24 28 31 32 33 33 29 25 24 27 29 36 39 37 36 39 42 44 45 46 48 46 49 54 46
59 53 47 46 43 39 35 18 14 10 18 21 11 8 9 14 17 24 28 31 31 31 32 28 24 22 23 20 26 32 30 32 34 39 39 42 45 45 45 45 47 53 56
65 57 54 52 48 39 24 15 10 13 20 13 5 5 9 13 19 22 24 26 28 26 24 25 20 18 24 30 31 28 24 23 33 38 36 39 43 42 46 44 46 48 48
67 60 57 53 45 32 21 15 12 17 10 1 1 6 8 13 15 19 20 20 19 21 24 25 25 27 31 35 35 35 30 30 29 28 32 36 34 41 39 42 47 45 43
69 60 57 50 40 29 21 12 14 9 6 4 2 1 7 9 13 16 18 15 13 19 22 26 27 28 31 34 35 34 32 31 29 30 34 34 25 26 33 37 40 43 43
64 59 53 43 33 23 13 13 11 11 8 10 6 1 4 7 9 14 18 17 16 18 17 22 24 32 39 42 40 39 35 34 38 40 40 29 24 24 30 34 38 41 44
57 56 50 41 28 18 17 17 15 16 14 12 8 5 4 7 9 13 16 19 20 21 23 24 28 35 43 39 34 34 34 36 38 39 30 30 25 28 32 22 31 37 35
60 56 46 35 26 20 23 26 29 25 21 16 11 9 5 5 8 13 17 20 21 22 24 26 29 36 41 37 32 28 26 30 31 27 28 30 30 31 35 28 29 35 30
59 51 41 33 22 27 33 38 32 24 20 20 18 12 8 6 8 11 14 18 21 21 25 27 27 33 36 31 28 28 29 32 33 30 29 28 30 30 32 31 24 22 29
56 49 42 31 29 38 38 33 25 20 14 13 13 11 10 9 7 7 9 15 16 19 24 25 24 29 30 28 27 27 30 34 37 36 34 28 26 26 28 30 30 23 23
49 45 39 32 36 48 39 30 25 19 13 7 4 5 6 6 4 1 10 15 19 23 27 28 23 27 28 27 26 30 32 35 37 37 37 32 24 23 23 27 27 19 28
49 45 40 36 42 44 40 33 27 21 16 8 5 6 4 6 8 11 14 17 20 22 24 29 25 26 25 26 30 34 35 37 39 38 36 34 30 23 21 19 21 22 26
46 45 46 41 46 44 40 32 29 23 16 12 8 12 14 9 13 15 13 13 14 16 17 25 24 24 22 23 27 34 40 44 44 41 39 37 31 18 16 11 15 22 31
38 44 51 44 41 42 36 29 26 21 18 16 16 15 14 12 17 15 11 10 10 11 12 19 21 20 18 20 24 30 37 43 46 47 45 40 33 25 15 13 15 21 28
40 53 55 47 42 38 32 27 22 19 18 14 14 15 14 8 10 12 13 11 10 10 11 13 17 18 14 17 19 24 31 36 45 49 47 45 42 34 18 17 20 23 29
43 52 54 51 43 41 34 27 21 16 15 13 12 9 13 9 5 6 8 12 12 12 12 12 13 16 18 16 18 22 25 30 35 41 45 47 47 43 29 22 24 28 30
51 57 53 51 45 41 34 29 21 15 13 13 11 9 12 14 14 16 14 16 16 17 13 14 15 17 19 21 24 26 27 30 34 35 37 39 42 48 47 36 32 32 34
60 60 52 46 46 42 36 31 23 16 15 13 13 17 16 14 16 21 25 25 22 21 21 22 23 23 24 27 30 32 33 34 37 39 38 37 39 40 47 47 41 39 38
58 53 49 48 46 42 35 33 27 24 21 18 15 18 23 23 21 26 28 28 28 28 28 29 30 29 30 33 34 37 40 40 41 47 47 45 45 52 52 54 51 45 41
56 49 42 46 49 41 35 33 28 29 30 24 23 25 26 23 19 21 21 21 23 25 26 28 28 28 30 35 39 44 46 46 48 50 53 52 48 57 60 57 54 48 44
53 45 38 42 45 40 36 30 30 30 29 27 23 24 23 23 24 25 27 28 26 25 25 29 34 39 43 47 51 53 52 53 57 60 62 62 54 52 60 58 56 48 44
50 45 43 44 44 40 36 33 32 29 29 28 28 25 24 25 27 29 29 32 37 43 45 46 47 50 53 57 57 53 50 52 57 53 61 65 63 50 51 53 52 48 42
Wind_Direction_850mb
205 204 203 198 198 202 208 219 239 254 261 284 305 317 327 328 327 322 319 322 323 323 323 328 335 335 333 332 328 334 328 325 324 318 320 321 322 325 326 318 312 311 301
205 199 195 197 201 204 214 223 238 250 274 298 308 324 329 334 338 335 331 332 328 326 331 333 339 344 342 334 327 322 325 327 326 322 321 323 323 323 323 320 310 303 299
201 197 196 200 205 213 221 230 234 250 273 308 321 325 335 338 339 339 335 333 330 331 335 339 338 337 333 328 326 324 322 323 322 320 319 320 319 322 320 322 322 315 302
202 201 201 206 208 215 225 226 239 260 300 315 319 330 335 348 347 342 341 339 339 338 334 331 328 327 328 331 333 331 329 324 318 318 322 326 326 327 327 333 336 339 332
202 202 206 207 213 217 223 219 228 280 306 325 327 334 345 347 342 342 342 336 331 328 331 337 342 335 326 327 337 331 328 329 337 336 337 341 342 343 342 347 341 340 343
203 206 207 210 215 219 215 225 274 281 323 334 331 339 341 342 343 339 333 333 336 341 346 353 354 1 356 351 337 328 330 334 337 336 339 341 343 343 343 338 333 334 334
203 203 208 211 209 205 216 224 241 295 317 313 318 340 342 344 342 343 352 358 5 12 19 16 19 3 339 338 345 343 341 330 323 327 328 333 331 338 332 335 336 329 323
200 205 207 205 203 201 206 220 262 299 295 227 335 348 1 358 13 16 10 18 33 25 11 6 6 7 3 358 356 353 346 337 336 338 337 338 329 330 332 331 334 331 332
198 202 199 200 193 195 203 234 280 255 189 211 214 23 1 19 19 27 28 32 31 10 14 18 17 11 5 357 349 347 345 343 341 333 336 336 339 346 346 347 350 345 341
196 195 193 186 187 190 213 261 230 190 214 188 190 205 38 36 38 38 35 33 26 33 27 19 12 1 350 341 336 336 338 340 338 338 336 337 327 334 336 344 349 349 347
189 183 179 181 183 202 236 199 181 159 145 153 160 131 72 68 43 33 36 42 38 34 24 12 358 354 353 350 345 343 345 341 340 338 339 338 338 343 355 349 358 355 346
177 177 178 181 194 213 177 167 149 129 109 96 110 113 91 53 41 52 55 43 27 12 4 358 351 351 355 357 357 355 344 340 338 340 340 349 353 348 351 346 353 4 359
176 177 179 185 185 174 168 156 145 130 107 84 79 93 80 60 72 66 50 28 5 357 353 345 341 343 350 357 353 350 346 345 346 340 338 347 352 345 341 352 356 353 13
178 178 180 183 172 171 166 158 155 146 130 101 77 73 68 71 83 85 25 2 360 357 356 350 338 341 351 354 356 358 354 352 353 352 350 339 333 342 343 347 357 3 18
181 181 181 181 178 177 178 170 162 155 147 136 118 61 47 76 96 330 341 348 355 353 354 353 349 352 360 7 9 2 356 353 356 358 358 357 355 355 355 356 358 24 32
186 187 185 178 181 184 180 178 180 180 173 190 236 256 284 268 270 296 315 329 344 345 352 357 2 2 4 7 8 12 10 8 6 5 3 3 0 6 10 23 48 40 22
194 191 183 179 182 184 187 187 189 189 197 214 248 253 256 281 275 267 294 313 329 343 354 4 9 10 16 20 27 28 26 21 15 11 7 5 7 6 7 29 16 12 10
197 198 187 181 177 185 187 182 184 194 219 238 253 260 247 247 266 260 268 295 312 337 348 1 7 14 26 35 31 29 29 25 20 16 14 11 8 360 348 336 344 355 0
192 193 191 186 183 183 184 190 199 222 236 230 250 233 239 251 294 235 250 274 297 308 333 346 359 1 360 8 13 16 16 18 16 15 13 11 10 7 355 340 335 329 336
196 193 188 189 187 190 194 200 216 224 228 235 202 256 244 263 284 229 249 269 284 302 302 318 330 344 350 338 346 350 354 356 4 9 14 18 15 9 359 341 333 334 334
195 187 189 192 196 194 200 205 208 223 214 200 221 253 248 251 274 278 270 277 287 279 295 299 301 308 318 328 328 332 335 338 341 348 359 4 11 14 6 347 330 327 326
186 185 189 192 193 201 206 202 209 216 192 210 237 252 262 277 281 283 282 282 277 283 278 284 295 303 307 309 313 316 320 324 324 326 331 338 344 350 358 357 340 327 322
185 188 190 195 200 201 210 207 216 223 227 239 246 256 265 274 293 293 286 286 274 272 278 284 290 295 301 304 305 306 308 314 313 312 311 315 320 325 329 341 343 333 324
183 186 191 195 195 204 211 214 219 235 241 247 249 258 268 275 288 292 297 285 276 276 280 283 285 292 298 301 302 301 300 302 299 299 300 302 306 317 321 324 334 332 324
188 192 191 197 205 211 215 227 227 228 236 242 249 263 271 267 270 286 292 286 284 283 288 289 291 295 298 301 302 302 301 299 296 292 293 295 295 302 321 323 327 324 321
197 203 210 213 214 214 218 226 228 241 240 248 256 265 273 278 279 284 287 289 289 288 289 289 291 295 298 301 300 299 301 299 293 291 289 291 283 297 313 321 324 317 315